DW2217 Weather Reports


time (UTC)temp
C
wind
direction
speed
KPH
gust
KPH
rain 1hr
cm
rain 24hr
cm
rain mn
cm
humidity
%
barometer
mb
20260905094033 15 10 0.0 3.2 0.00 0.00 0.00 95 1008.6
20260905093527 15 10 0.0 0.0 0.00 0.00 0.00 95 1008.6
20260905093024 15 10 0.0 0.0 0.00 0.00 0.00 95 1008.6
20260905092524 15 10 0.0 0.0 0.00 0.00 0.00 94 1008.5
20260905092020 15 10 0.0 0.0 0.00 0.00 0.00 94 1008.7
20260905091519 16 10 0.0 0.0 0.00 0.00 0.00 94 1008.5
20260905091014 15 10 0.0 3.2 0.00 0.00 0.00 93 1008.4
20260905090513 15 10 0.0 0.0 0.00 0.00 0.00 93 1008.6
20260905090008 15 10 0.0 0.0 0.00 0.00 0.00 93 1008.4
20260905085507 15 10 0.0 3.2 0.00 0.00 0.00 92 1008.2
20260905085002 15 9 0.0 3.2 0.00 0.00 0.00 92 1008.3
20260905084457 15 8 1.6 3.2 0.00 0.00 0.00 92 1008.2
20260905083952 15 8 1.6 3.2 0.00 0.00 0.00 92 1008.3
20260905083447 15 9 1.6 3.2 0.00 0.00 0.00 93 1008.3
20260905082943 15 9 0.0 0.0 0.00 0.00 0.00 92 1008.0
20260905082439 15 9 0.0 0.0 0.00 0.00 0.00 92 1007.9
20260905081933 15 9 0.0 0.0 0.00 0.00 0.00 92 1008.0
20260905081428 16 9 0.0 0.0 0.00 0.00 0.00 91 1008.1
20260905080927 16 7 0.0 3.2 0.00 0.00 0.00 90 1008.0
20260905080422 16 21 3.2 3.2 0.00 0.00 0.00 90 1008.2
20260905075921 15 21 3.2 3.2 0.00 0.00 0.00 91 1007.9
20260905075415 15 20 3.2 3.2 0.00 0.00 0.00 91 1007.8
20260905074914 15 30 1.6 3.2 0.00 0.00 0.00 91 1007.7
20260905074410 15 35 1.6 3.2 0.00 0.00 0.00 91 1008.0
20260905073906 15 63 0.0 3.2 0.00 0.00 0.00 91 1007.9
20260905073401 16 60 3.2 3.2 0.00 0.00 0.00 90 1008.0
20260905072856 16 342 3.2 3.2 0.00 0.00 0.00 88 1008.0
20260905072350 16 359 3.2 4.8 0.00 0.00 0.00 88 1008.0
20260905071841 16 12 3.2 3.2 0.00 0.00 0.00 88 1007.9
20260905071337 16 9 3.2 3.2 0.00 0.00 0.00 88 1007.9
20260905070831 16 351 3.2 3.2 0.00 0.00 0.00 88 1008.0
20260905070328 16 354 3.2 3.2 0.00 0.00 0.00 88 1008.1
20260905065827 16 353 3.2 3.2 0.00 0.00 0.00 88 1008.1
20260905065325 16 309 4.8 4.8 0.00 0.00 0.00 89 1008.2
20260905064821 16 283 6.4 8.0 0.00 0.00 0.00 89 1008.4
20260905064316 16 345 3.2 4.8 0.00 0.00 0.00 89 1008.3
20260905063815 16 346 3.2 4.8 0.00 0.00 0.00 88 1008.3
20260905063311 16 355 3.2 4.8 0.00 0.00 0.00 88 1008.2
20260905062807 16 358 3.2 3.2 0.00 0.00 0.00 88 1008.2
20260905062305 16 7 3.2 3.2 0.00 0.00 0.00 88 1008.0
20260905061755 16 45 0.0 3.2 0.00 0.00 0.00 89 1008.1
20260905061250 16 318 0.0 0.0 0.00 0.00 0.00 87 1008.2
20260905060744 17 314 3.2 3.2 0.00 0.00 0.00 86 1008.2
20260905060241 17 330 3.2 3.2 0.00 0.00 0.00 85 1008.1
20260905055739 17 345 3.2 4.8 0.00 0.00 0.00 85 1008.3
20260905055235 17 350 3.2 4.8 0.00 0.00 0.00 85 1008.3
20260905054724 17 335 4.8 4.8 0.00 0.00 0.00 85 1008.3
20260905054221 16 340 4.8 4.8 0.00 0.00 0.00 86 1008.3
20260905053719 16 6 3.2 4.8 0.00 0.00 0.00 86 1008.4
20260905053214 17 4 3.2 4.8 0.00 0.00 0.00 86 1008.5
20260905052709 17 3 3.2 3.2 0.00 0.00 0.00 85 1008.4
20260905052204 17 4 3.2 3.2 0.00 0.00 0.00 85 1008.5
20260905051704 17 15 3.2 3.2 0.00 0.00 0.00 86 1008.3
20260905051201 16 7 3.2 3.2 0.00 0.00 0.00 87 1008.5
20260905050657 16 21 1.6 3.2 0.00 0.00 0.00 89 1008.7
20260905050154 16 18 3.2 3.2 0.00 0.00 0.00 88 1008.5
20260905045653 17 16 3.2 3.2 0.00 0.00 0.00 86 1008.5
20260905045148 17 15 3.2 3.2 0.00 0.00 0.00 85 1008.4
20260905044643 17 43 1.6 3.2 0.00 0.00 0.00 85 1008.4
20260905044138 17 44 0.0 0.0 0.00 0.00 0.00 86 1008.3
20260905043636 17 44 0.0 3.2 0.00 0.00 0.00 86 1008.3
20260905043132 17 44 0.0 0.0 0.00 0.00 0.00 85 1008.3
20260905042631 17 42 0.0 3.2 0.00 0.00 0.00 85 1008.3
20260905042126 17 44 1.6 3.2 0.00 0.00 0.00 85 1008.3
20260905041621 17 97 0.0 0.0 0.00 0.00 0.00 86 1008.6
20260905041117 17 100 0.0 0.0 0.00 0.00 0.00 86 1008.3
20260905040616 17 100 0.0 0.0 0.00 0.00 0.00 85 1008.4
20260905040115 17 134 3.2 3.2 0.00 0.00 0.00 84 1008.5
20260905035611 18 142 3.2 3.2 0.00 0.00 0.00 82 1008.3
20260905035107 18 20 3.2 3.2 0.00 0.00 0.00 82 1008.3
20260905034602 18 16 3.2 3.2 0.00 0.00 0.00 81 1008.3
20260905034056 18 4 3.2 4.8 0.00 0.00 0.00 82 1008.3
20260905033550 18 345 1.6 4.8 0.00 0.00 0.00 82 1008.3
20260905033046 18 312 4.8 4.8 0.00 0.00 0.00 82 1008.4
20260905032541 18 318 3.2 4.8 0.00 0.00 0.00 81 1008.4
20260905032036 18 316 4.8 4.8 0.00 0.00 0.00 81 1008.6
20260905031531 18 312 3.2 3.2 0.00 0.00 0.00 81 1008.6
20260905031030 18 314 3.2 3.2 0.00 0.00 0.00 81 1008.7
20260905030521 18 319 3.2 4.8 0.00 0.00 0.00 80 1008.6
20260905030021 18 312 3.2 4.8 0.00 0.00 0.00 80 1008.6
20260905025516 18 335 3.2 4.8 0.00 0.00 0.00 80 1008.6
20260905025012 18 350 4.8 4.8 0.00 0.00 0.00 79 1008.6
20260905024507 18 357 3.2 3.2 0.00 0.00 0.00 79 1008.6
20260905024003 18 334 3.2 4.8 0.00 0.00 0.00 79 1008.7
20260905023457 18 331 3.2 3.2 0.00 0.00 0.00 79 1008.6
20260905022956 18 325 3.2 3.2 0.00 0.00 0.00 79 1008.6
20260905022451 18 310 4.8 8.0 0.00 0.00 0.00 79 1008.7
20260905021947 18 342 3.2 4.8 0.00 0.00 0.00 81 1008.7
20260905021446 18 5 3.2 3.2 0.00 0.00 0.00 82 1008.7
20260905020942 18 39 1.6 3.2 0.00 0.00 0.00 82 1009.0
20260905020441 18 61 1.6 3.2 0.00 0.00 0.00 81 1009.0
20260905015936 18 63 0.0 0.0 0.00 0.00 0.00 82 1008.8
20260905015434 18 64 0.0 0.0 0.00 0.00 0.00 82 1008.8
20260905014933 18 63 1.6 3.2 0.00 0.00 0.00 83 1008.8
20260905014429 18 63 3.2 3.2 0.00 0.00 0.00 83 1009.0
20260905013924 19 346 1.6 3.2 0.00 0.00 0.00 78 1008.8
20260905013421 19 341 1.6 3.2 0.00 0.00 0.00 79 1008.7
20260905012915 19 321 3.2 4.8 0.00 0.00 0.00 79 1008.8
20260905012411 19 316 4.8 4.8 0.00 0.00 0.00 77 1009.0
20260905011908 19 321 3.2 4.8 0.00 0.00 0.00 77 1008.8
20260905011403 19 328 3.2 4.8 0.00 0.00 0.00 77 1008.8
20260905010858 20 340 3.2 4.8 0.00 0.00 0.00 76 1009.1
20260905010353 20 354 1.6 3.2 0.00 0.00 0.00 76 1009.1
20260905005849 20 354 0.0 3.2 0.00 0.00 0.00 77 1009.1
20260905005345 20 354 0.0 3.2 0.00 0.00 0.00 77 1009.1
20260905004839 20 353 1.6 3.2 0.00 0.00 0.00 75 1009.0
20260905004334 20 353 3.2 3.2 0.00 0.00 0.00 77 1008.7
20260905003830 20 351 3.2 3.2 0.00 0.00 0.00 76 1008.8
20260905003325 20 359 0.0 3.2 0.00 0.00 0.00 75 1008.8
20260905002821 20 359 0.0 0.0 0.00 0.00 0.00 75 1009.0
20260905002315 20 359 0.0 0.0 0.00 0.00 0.00 76 1009.0
20260905001810 20 359 0.0 0.0 0.00 0.00 0.00 77 1008.7
20260905001309 20 358 0.0 0.0 0.00 0.00 0.00 77 1008.8
20260905000805 20 352 0.0 0.0 0.00 0.00 0.00 78 1009.0
20260905000300 20 350 0.0 3.2 0.00 0.00 0.00 79 1008.7
20260904235756 20 349 1.6 3.2 0.00 0.00 0.00 78 1008.6
20260904235250 20 354 1.6 3.2 0.00 0.00 0.00 76 1008.4
20260904234745 20 341 1.6 3.2 0.00 0.00 0.00 76 1008.5
20260904234240 20 308 4.8 4.8 0.00 0.00 0.00 72 1008.4
20260904233736 20 29 3.2 3.2 0.00 0.00 0.00 71 1008.3
20260904233232 20 42 1.6 3.2 0.00 0.00 0.00 72 1008.4
20260904232728 21 45 0.0 3.2 0.00 0.00 0.00 73 1008.4
20260904232224 21 27 0.0 3.2 0.00 0.00 0.00 71 1008.3
20260904231719 21 26 3.2 3.2 0.00 0.00 0.00 71 1008.3
20260904231214 21 30 3.2 3.2 0.00 0.00 0.00 72 1008.4
20260904230709 20 53 1.6 3.2 0.00 0.00 0.00 74 1008.6
20260904230203 20 66 3.2 3.2 0.00 0.00 0.00 76 1008.6
20260904225702 21 63 3.2 3.2 0.00 0.00 0.00 78 1008.5
20260904225156 21 19 0.0 3.2 0.00 0.00 0.00 74 1008.3
20260904224650 21 312 1.6 4.8 0.00 0.00 0.00 72 1008.4
20260904224145 21 12 3.2 3.2 0.00 0.00 0.00 71 1008.2
20260904223645 21 359 3.2 4.8 0.00 0.00 0.00 70 1008.3
20260904223140 22 359 3.2 4.8 0.00 0.00 0.00 68 1008.3
20260904222636 22 306 4.8 4.8 0.00 0.00 0.00 66 1008.1
20260904222131 22 13 3.2 3.2 0.00 0.00 0.00 66 1008.3
20260904221631 22 4 1.6 4.8 0.00 0.00 0.00 67 1008.2
20260904221125 22 14 1.6 3.2 0.00 0.00 0.00 68 1008.3
20260904220621 22 310 3.2 4.8 0.00 0.00 0.00 66 1008.4
20260904220116 22 0 3.2 3.2 0.00 0.00 0.00 65 1008.4
20260904215616 22 13 0.0 3.2 0.00 0.00 0.00 65 1008.5
20260904215112 22 15 0.0 3.2 0.00 0.00 0.00 66 1008.4
20260904214607 22 11 1.6 3.2 0.00 0.00 0.00 65 1008.4
20260904214103 22 357 3.2 4.8 0.00 0.00 0.00 65 1008.3
20260904213600 22 345 3.2 4.8 0.00 0.00 0.00 63 1008.3
20260904213057 22 331 3.2 4.8 0.00 0.00 0.00 63 1008.0
20260904212556 22 322 6.4 8.0 0.00 0.00 0.00 62 1008.4
20260904212052 22 333 3.2 4.8 0.00 0.00 0.00 62 1008.3
20260904211551 22 321 3.2 8.0 0.00 0.00 0.00 62 1008.5
20260904211047 23 310 6.4 11.3 0.00 0.00 0.00 60 1008.2
20260904210546 23 325 4.8 11.3 0.00 0.00 0.00 62 1008.2
20260904210042 23 299 4.8 8.0 0.00 0.00 0.00 63 1008.1
20260904205542 23 290 4.8 11.3 0.00 0.00 0.00 64 1008.3
20260904205039 23 288 6.4 11.3 0.00 0.00 0.00 64 1008.1
20260904204535 23 314 4.8 4.8 0.00 0.00 0.00 65 1008.0
20260904204031 23 287 6.4 11.3 0.00 0.00 0.00 62 1008.2
20260904203526 24 349 3.2 8.0 0.00 0.00 0.00 63 1008.1
20260904203023 24 17 1.6 3.2 0.00 0.00 0.00 63 1007.9
20260904202519 24 353 1.6 8.0 0.00 0.00 0.00 63 1008.1
20260904202015 24 299 11.3 14.5 0.00 0.00 0.00 62 1008.1
20260904201509 24 310 9.7 11.3 0.00 0.00 0.00 61 1008.1
20260904201005 24 338 8.0 8.0 0.00 0.00 0.00 61 1008.0
20260904200503 24 292 8.0 11.3 0.00 0.00 0.00 61 1007.9
20260904195958 24 309 4.8 11.3 0.00 0.00 0.00 60 1008.1
20260904195457 25 350 4.8 14.5 0.00 0.00 0.00 59 1008.1
20260904194955 24 299 4.8 4.8 0.00 0.00 0.00 61 1008.1
20260904194451 24 14 1.6 3.2 0.00 0.00 0.00 63 1008.1
20260904193945 24 319 4.8 11.3 0.00 0.00 0.00 60 1008.1
20260904193429 23 289 8.0 8.0 0.00 0.00 0.00 60 1008.2
20260904192925 23 289 8.0 8.0 0.00 0.00 0.00 60 1008.2
20260904192420 24 291 11.3 14.5 0.00 0.00 0.00 57 1008.2
20260904191916 24 309 4.8 14.5 0.00 0.00 0.00 58 1008.0
20260904191413 25 301 4.8 8.0 0.00 0.00 0.00 62 1008.2
20260904190909 24 326 8.0 11.3 0.00 0.00 0.00 64 1008.2
20260904190404 23 304 1.6 4.8 0.00 0.00 0.00 69 1008.5
20260904185901 23 16 3.2 3.2 0.00 0.00 0.00 70 1008.5
20260904185355 23 43 0.0 3.2 0.00 0.00 0.00 70 1008.5
20260904184855 23 24 1.6 3.2 0.00 0.00 0.00 69 1008.3
20260904184350 23 20 3.2 3.2 0.00 0.00 0.00 70 1008.2
20260904183840 23 43 1.6 3.2 0.00 0.00 0.00 69 1008.2
20260904183335 23 335 3.2 4.8 0.00 0.00 0.00 66 1008.2
20260904182830 24 3 3.2 4.8 0.00 0.00 0.00 64 1008.2
20260904182325 25 317 0.0 3.2 0.00 0.00 0.00 64 1008.1
20260904181820 25 301 4.8 8.0 0.00 0.00 0.00 61 1008.0
20260904181315 25 303 6.4 8.0 0.00 0.00 0.00 62 1008.1
20260904180810 25 71 4.8 8.0 0.00 0.00 0.00 68 1008.1
20260904180305 23 60 0.0 3.2 0.00 0.00 0.00 68 1008.1
20260904175804 23 18 0.0 3.2 0.00 0.00 0.00 71 1008.4
20260904175305 23 293 3.2 4.8 0.00 0.00 0.00 68 1008.3
20260904174758 23 321 3.2 8.0 0.00 0.00 0.00 71 1008.2
20260904174254 23 74 4.8 4.8 0.00 0.00 0.00 76 1008.3
20260904173749 22 13 0.0 3.2 0.00 0.00 0.00 76 1008.2
20260904173244 22 13 0.0 3.2 0.00 0.00 0.00 75 1008.3
20260904172741 22 312 3.2 4.8 0.00 0.00 0.00 75 1008.2
20260904172239 22 321 1.6 4.8 0.00 0.00 0.00 74 1008.4
20260904171734 22 5 3.2 3.2 0.00 0.00 0.00 80 1008.4
20260904171229 22 12 3.2 3.2 0.00 0.00 0.00 78 1008.6
20260904170726 22 14 0.0 3.2 0.00 0.00 0.00 80 1008.5
20260904170222 22 270 3.2 4.8 0.00 0.00 0.00 78 1008.4
20260904165721 22 32 1.6 3.2 0.00 0.00 0.00 79 1008.6
20260904165215 22 33 0.0 0.0 0.00 0.00 0.00 80 1008.6
20260904164709 22 33 0.0 3.2 0.00 0.00 0.00 80 1008.8
20260904164204 22 33 0.0 3.2 0.00 0.00 0.00 79 1008.7
20260904163700 22 32 0.0 3.2 0.00 0.00 0.00 78 1008.7
20260904163155 22 305 3.2 3.2 0.00 0.00 0.00 77 1008.8
20260904162654 23 298 6.4 8.0 0.00 0.00 0.00 75 1009.1
20260904162149 22 65 0.0 4.8 0.00 0.00 0.00 80 1009.0
20260904161645 22 58 0.0 0.0 0.00 0.00 0.00 81 1009.0
20260904161140 22 60 0.0 3.2 0.00 0.00 0.00 81 1009.0
20260904160636 22 9 1.6 3.2 0.00 0.00 0.00 81 1009.0
20260904160131 22 20 1.6 3.2 0.00 0.00 0.00 79 1009.1
20260904155626 22 286 3.2 11.3 0.00 0.00 0.00 78 1009.1
20260904155120 22 68 1.6 4.8 0.00 0.00 0.00 82 1009.0
20260904154613 22 92 3.2 3.2 0.00 0.00 0.00 83 1009.1
20260904154113 22 32 0.0 3.2 0.00 0.00 0.00 83 1009.1
20260904153608 22 61 0.0 4.8 0.00 0.00 0.00 83 1009.2
20260904153104 21 351 1.6 3.2 0.00 0.00 0.00 84 1009.3
20260904152600 21 286 4.8 4.8 0.00 0.00 0.00 85 1009.4
20260904152055 21 13 3.2 3.2 0.00 0.00 0.00 87 1009.7
20260904151550 21 50 0.0 3.2 0.00 0.00 0.00 86 1009.7
20260904151043 21 69 0.0 4.8 0.00 0.00 0.00 86 1009.6
20260904150538 20 63 1.6 3.2 0.00 0.00 0.00 87 1009.5
20260904150033 20 33 0.0 3.2 0.00 0.00 0.00 89 1009.6
20260904145532 20 111 0.0 0.0 0.00 0.00 0.00 92 1009.6
20260904145028 20 114 0.0 3.2 0.00 0.00 0.00 94 1009.7
20260904144524 20 146 3.2 3.2 0.00 0.00 0.00 94 1009.6
20260904144020 19 81 0.0 3.2 0.00 0.00 0.00 94 1009.6
20260904143515 20 77 0.0 3.2 0.00 0.00 0.00 95 1009.7
20260904143012 19 32 0.0 3.2 0.00 0.00 0.00 96 1009.6
20260904142508 19 68 0.0 0.0 0.00 0.00 0.00 96 1009.6
20260904142008 18 64 0.0 3.2 0.00 0.00 0.00 97 1009.9
20260904141502 18 50 0.0 0.0 0.00 0.00 0.00 98 1009.9
20260904140958 18 51 0.0 3.2 0.00 0.00 0.00 98 1010.0
20260904140453 18 74 3.2 3.2 0.00 0.00 0.00 98 1009.6
20260904135952 18 47 0.0 3.2 0.00 0.00 0.00 98 1009.7
20260904135446 18 18 3.2 4.8 0.00 0.00 0.00 98 1009.6
20260904134943 18 74 3.2 4.8 0.00 0.00 0.00 98 1009.7
20260904134443 17 48 0.0 3.2 0.00 0.00 0.00 98 1009.6
20260904133937 18 24 1.6 3.2 0.00 0.00 0.00 98 1009.7
20260904133432 17 20 3.2 3.2 0.00 0.00 0.00 98 1009.6
20260904132928 17 24 1.6 3.2 0.00 0.00 0.00 98 1009.7
20260904132423 17 75 0.0 0.0 0.00 0.00 0.00 98 1009.7
20260904131922 17 101 0.0 3.2 0.00 0.00 0.00 98 1009.7
20260904131418 17 68 1.6 3.2 0.00 0.00 0.00 98 1009.8
20260904130914 17 55 0.0 0.0 0.00 0.00 0.00 98 1009.8
20260904130412 17 55 0.0 0.0 0.00 0.00 0.00 98 1009.7
20260904125907 17 55 0.0 3.2 0.00 0.00 0.00 98 1009.8
20260904125404 17 40 0.0 0.0 0.00 0.00 0.00 98 1009.8
20260904124903 17 29 0.0 3.2 0.00 0.00 0.00 98 1009.9
20260904124400 17 37 0.0 3.2 0.00 0.00 0.00 98 1009.8
20260904123855 17 37 0.0 0.0 0.00 0.00 0.00 98 1009.8
20260904123350 16 37 0.0 3.2 0.00 0.00 0.00 98 1009.8
20260904122845 16 51 1.6 3.2 0.00 0.00 0.00 98 1009.7
20260904122344 16 107 1.6 3.2 0.00 0.00 0.00 98 1009.7
20260904121839 16 88 0.0 0.0 0.00 0.00 0.00 98 1010.0
20260904121336 16 22 0.0 3.2 0.00 0.00 0.00 98 1009.8
20260904120832 16 18 0.0 0.0 0.00 0.00 0.00 98 1009.8
20260904120327 16 16 0.0 3.2 0.00 0.00 0.00 98 1009.8
20260904115822 16 333 0.0 3.2 0.00 0.00 0.00 98 1009.8
20260904115318 16 340 0.0 0.0 0.00 0.00 0.00 98 1009.7
20260904114818 16 340 3.2 3.2 0.00 0.00 0.00 98 1009.9
20260904114312 16 340 0.0 0.0 0.00 0.00 0.00 98 1009.7
20260904113808 16 314 3.2 3.2 0.00 0.00 0.00 98 1009.5
20260904113307 16 3 3.2 3.2 0.00 0.00 0.00 98 1009.7
20260904112801 16 13 1.6 3.2 0.00 0.00 0.00 98 1009.5
20260904112257 16 18 1.6 3.2 0.00 0.00 0.00 98 1009.8
20260904111753 16 21 0.0 3.2 0.00 0.00 0.00 98 1009.7
20260904111248 16 21 0.0 3.2 0.00 0.00 0.00 98 1009.7
20260904110744 16 19 3.2 3.2 0.00 0.00 0.00 98 1009.6
20260904110243 16 30 3.2 3.2 0.00 0.00 0.00 98 1009.7
20260904105738 16 33 0.0 3.2 0.00 0.00 0.00 98 1009.8
20260904105233 16 38 0.0 0.0 0.00 0.00 0.00 98 1009.6
20260904104728 16 37 0.0 3.2 0.00 0.00 0.00 98 1009.7
20260904104223 16 38 0.0 0.0 0.00 0.00 0.00 98 1009.5
20260904103721 16 37 0.0 3.2 0.00 0.00 0.00 98 1009.4
20260904103215 16 37 1.6 3.2 0.00 0.00 0.00 98 1009.6
20260904102711 16 37 1.6 3.2 0.00 0.00 0.00 98 1009.5
20260904102206 16 46 1.6 3.2 0.00 0.00 0.00 98 1009.2
20260904101703 16 50 3.2 3.2 0.00 0.00 0.00 98 1009.3
20260904101158 16 70 0.0 0.0 0.00 0.00 0.00 98 1009.2
20260904100654 16 70 0.0 0.0 0.00 0.00 0.00 98 1009.3
20260904100149 16 70 0.0 0.0 0.00 0.00 0.00 98 1009.2
20260904095648 16 71 0.0 0.0 0.00 0.00 0.00 98 1009.4
20260904095143 16 71 0.0 0.0 0.00 0.00 0.00 98 1009.2
20260904094638 16 26 1.6 3.2 0.00 0.00 0.00 98 1009.6